This demonstration page uses our WeatherBlox Daily Observations layout. Learn more.

Left ArrowRight Arrow

39.08367, -84.50855

Hourly Observations for September 6, 2015

Temp ( °F °C ) Dew Point ( °F °C ) Humidity (%) Winds ( mph kmh ) Pressure ( in mb ) Visibility ( mi km ) Precip ( " mm )
12:53 am 00:53 Clear with Mist and Fog 67 19.4 67 19.4 100 100 Calm 30.11 1020 4 6 0.00 0.00
1:53 am 01:53 Clear with Mist and Fog 67 19.4 67 19.4 100 100 Calm 30.10 1019 4 6 0.00 0.00
2:42 am 02:42 Clear with Mist and Fog 66 19 66 19 100 100 Calm 30.09 1019 2 3 0.00 0.00
2:53 am 02:53 Clear with Mist and Fog 66 18.9 66 18.9 100 100 Calm 30.10 1019 3 5 0.00 0.00
3:53 am 03:53 Clear with Mist and Fog 66 18.9 66 18.9 100 100 Calm 30.10 1019 3 5 0.00 0.00
4:24 am 04:24 Clear with Mist and Fog 66 19 66 19 100 100 Calm 30.09 1019 2 3 0.00 0.00
4:35 am 04:35 Clear with Mist and Fog 67 19.4 67 19.4 100 100 Calm 30.09 1019 4 6 0.00 0.00
4:53 am 04:53 Clear with Mist and Fog 65 18.3 65 18.3 100 100 Calm 30.11 1020 4 6 0.00 0.00
5:24 am 05:24 Clear with Mist and Fog 66 19 66 19 100 100 Calm 30.09 1019 2 2 0.00 0.00
5:36 am 05:36 Clear with Mist and Fog 64 18 64 18 100 100 E 3 6 30.09 1019 1 1 0.00 0.00
5:48 am 05:48 Clear with Mist and Fog 64 18 64 18 100 100 Calm 30.09 1019 2 3 0.00 0.00
5:53 am 05:53 Clear with Mist and Fog 65 18.3 65 18.3 100 100 Calm 30.11 1020 3 4 0.00 0.00
5:57 am 05:57 Clear with Mist and Fog 65 18.3 65 18.3 100 100 Calm 30.09 1019 1 1 0.00 0.00
6:01 am 06:01 Mostly Cloudy with Fog 65 18.3 65 18.3 100 100 Calm 30.09 1019 0 0 0.00 0.00
6:25 am 06:25 Mostly Cloudy with Mist and Fog 65 18.3 65 18.3 100 100 Calm 30.09 1019 1 2 0.00 0.00
6:40 am 06:40 Clear with Mist and Fog 64 18 64 18 100 100 Calm 30.09 1019 2 3 0.00 0.00
6:47 am 06:47 Mostly Clear with Mist and Fog 64 18 64 18 100 100 Calm 30.09 1019 1 2 0.00 0.00
6:49 am 06:49 Mostly Cloudy with Mist and Fog 64 18 64 18 100 100 Calm 30.12 1020 1 1 0.00 0.00
6:53 am 06:53 Mostly Cloudy with Fog 64 17.8 64 17.8 100 100 Calm 30.12 1020 1 1 0.00 0.00
7:00 am 07:00 Partly Cloudy with Mist and Fog 64 18 64 18 100 100 Calm 30.12 1020 3 5 0.00 0.00
7:53 am 07:53 Partly Cloudy with Patchy Fog 65 18.3 65 18.3 100 100 Calm 30.14 1021 3 5 0.00 0.00
8:53 am 08:53 Sunny with Mist and Fog 70 21.1 68 20 93 93 Calm 30.14 1021 5 8 0.00 0.00
9:53 am 09:53 Sunny 74 23.3 70 21.1 88 88 SW 3 6 30.15 1021 8 13 0.00 0.00
10:53 am 10:53 Sunny 78 25.6 71 21.7 79 79 SSW 3 6 30.14 1021 10 16 0.00 0.00
11:53 am 11:53 Sunny 81 27.2 71 21.7 72 72 VRB 3 6 30.14 1021 9 14 0.00 0.00
12:53 pm 12:53 Sunny 85 29.4 72 22.2 65 65 Calm 30.13 1020 10 16 0.00 0.00
1:53 pm 13:53 Sunny 87 30.6 68 20 53 53 Calm 30.12 1020 10 16 0.00 0.00
2:53 pm 14:53 Sunny 88 31.1 67 19.4 50 50 Calm 30.10 1019 10 16 0.00 0.00
3:53 pm 15:53 Partly Cloudy 91 32.8 66 18.9 44 44 Calm 30.08 1019 10 16 0.00 0.00
4:53 pm 16:53 Mostly Sunny 90 32.2 66 18.9 45 45 NE 3 6 30.06 1018 10 16 0.00 0.00
5:53 pm 17:53 Sunny 89 31.7 68 20 50 50 E 3 6 30.06 1018 10 16 0.00 0.00
6:53 pm 18:53 Sunny 85 29.4 71 21.7 63 63 SSE 3 6 30.06 1018 10 16 0.00 0.00
7:53 pm 19:53 Sunny 78 25.6 73 22.8 85 85 Calm 30.05 1018 10 16 0.00 0.00
8:53 pm 20:53 Clear 74 23.3 70 21.1 88 88 Calm 30.05 1018 10 16 0.00 0.00
9:53 pm 21:53 Clear 72 22.2 70 21.1 94 94 Calm 30.07 1018 9 14 0.00 0.00
10:53 pm 22:53 Clear 70 21.1 69 20.6 97 97 Calm 30.07 1018 7 11 0.00 0.00
11:53 pm 23:53 Clear with Mist and Fog 70 21.1 70 21.1 100 100 Calm 30.07 1018 5 8 0.00 0.00

Powered by AerisWeather